ECMWFFLT2_sfc_temp_132.txt.gz
Temp
81 80 80 79 78 78 77 76 76 76 76 76 76 76 76 76 76 76 76 76 75 75 74 74 74 76 75 75 75 76 75 75 75 75 75 76 76 75 75 75 75 75 76 76 76 75 75 75 75 75 76 75 76 75 76 78 81 82 82 81 77 75
80 81 81 80 79 78 77 77 77 76 76 76 76 76 76 76 77 76 77 75 75 76 76 75 74 77 74 76 76 75 75 74 74 75 75 75 75 75 75 75 75 75 76 75 75 74 75 75 75 75 75 75 74 76 78 79 80 79 81 78 76 74
81 81 81 81 79 79 78 78 77 77 77 76 77 77 77 78 78 78 78 77 76 77 80 78 76 77 77 76 75 75 75 74 74 74 74 74 75 75 75 75 75 75 75 75 75 74 77 78 76 76 75 75 75 77 80 81 77 78 79 77 74 74
81 82 82 80 80 79 78 79 78 78 77 77 77 78 78 79 79 79 78 78 77 79 79 77 81 81 80 76 75 74 75 74 74 74 74 74 75 75 75 75 75 75 75 76 75 77 78 81 79 76 74 75 77 78 81 80 79 78 77 77 75 75
82 82 82 81 80 79 79 79 79 79 78 78 77 79 79 79 80 79 80 79 81 79 78 77 76 76 76 76 74 73 73 73 73 74 74 73 74 77 74 75 76 74 74 77 78 78 79 81 79 79 78 77 79 82 81 76 78 77 75 74 73 74
82 82 82 81 81 80 79 79 79 79 79 79 78 79 79 79 80 80 79 81 80 78 77 76 76 76 76 76 75 75 75 74 75 75 76 74 76 76 75 77 79 78 76 77 79 79 81 80 81 81 81 80 79 80 80 79 78 76 74 73 73 74
81 81 82 82 82 81 80 80 80 80 79 78 79 79 79 80 79 79 79 79 77 77 78 78 76 76 77 76 75 76 76 76 76 77 77 76 77 78 77 78 79 79 79 80 82 85 84 80 80 82 81 85 82 82 78 78 78 76 74 73 73 73
80 81 81 82 81 81 80 80 79 79 79 79 79 79 80 80 79 78 79 79 78 78 78 78 78 78 79 77 77 77 77 78 78 79 79 79 78 80 80 80 80 83 84 83 84 80 80 78 76 79 82 81 81 79 77 76 77 76 74 73 72 72
81 81 81 82 81 82 81 80 79 79 79 80 79 80 80 80 79 79 80 80 79 78 79 79 78 78 79 78 78 78 79 79 80 79 81 79 77 77 79 78 78 80 79 80 78 77 84 83 80 78 81 79 81 80 77 77 77 77 74 72 71 71
80 81 81 81 81 81 81 80 79 79 78 80 80 80 80 79 79 79 79 80 80 79 79 79 79 80 80 80 80 79 76 73 69 67 69 68 68 70 68 70 75 79 74 77 79 80 80 81 83 79 80 80 80 80 77 76 77 76 74 72 71 70
81 81 83 82 81 81 80 80 80 80 79 80 80 80 80 79 79 79 79 79 80 80 79 80 79 77 71 70 69 69 70 71 69 69 70 70 70 70 69 70 71 75 76 75 80 81 81 80 83 83 81 81 80 80 76 75 75 77 75 73 72 71
81 79 81 81 80 81 80 81 80 80 80 81 80 80 80 80 80 80 80 80 80 80 80 79 77 71 70 70 70 70 70 70 69 70 70 70 70 70 70 71 71 78 78 79 78 79 81 79 81 81 82 80 78 79 77 76 77 76 75 74 73 71
80 79 80 81 81 80 80 82 81 80 80 82 80 80 80 80 80 80 80 80 80 80 78 78 71 69 69 71 70 69 69 70 70 70 71 71 71 70 70 69 70 77 78 77 78 77 84 79 79 78 80 80 78 79 78 78 76 76 75 75 74 72
80 79 80 81 80 80 80 80 80 80 81 80 80 79 80 79 80 79 79 79 80 81 79 73 69 70 70 70 70 70 69 70 70 71 70 70 69 70 69 68 67 69 76 77 77 77 77 78 78 79 77 78 77 76 77 77 75 74 75 75 74 74
79 79 80 80 80 80 80 80 80 80 80 80 80 80 79 79 79 80 80 78 79 77 73 70 70 70 69 70 70 70 70 70 71 70 70 69 68 69 69 68 68 67 74 77 78 78 79 76 77 77 75 75 76 77 75 74 73 73 74 73 73 73
79 78 79 79 79 79 79 79 80 81 80 80 80 80 79 79 80 80 80 78 77 73 71 72 72 71 71 71 70 70 71 71 71 70 69 69 69 69 68 67 68 69 74 77 78 77 77 75 74 74 74 74 74 74 74 73 73 73 72 72 72 71
78 78 78 79 79 79 79 80 80 80 80 80 80 79 79 80 81 79 79 78 72 72 71 72 72 72 72 72 71 71 72 72 72 70 69 68 68 69 69 68 67 71 75 73 77 79 75 74 73 74 74 73 73 72 72 72 71 71 71 70 69 70
78 78 78 78 78 78 79 79 79 79 79 79 79 79 79 80 77 76 77 75 73 72 73 73 72 72 72 72 73 73 71 71 71 70 69 69 68 68 68 67 66 72 75 74 73 74 74 74 74 74 73 72 72 71 70 70 70 70 68 68 68 68
77 78 78 78 78 78 78 78 79 78 78 78 78 78 78 78 76 76 75 76 75 73 73 73 74 74 72 72 72 72 71 71 70 69 69 69 68 68 67 67 69 71 74 75 73 73 73 73 73 73 72 71 70 69 69 69 69 68 67 67 67 69
77 78 78 77 78 78 78 77 76 76 76 76 77 77 77 76 77 76 77 76 75 75 75 74 74 74 73 72 72 71 71 72 70 69 69 68 67 66 66 69 73 72 73 74 73 73 73 73 71 69 68 69 68 68 67 68 67 67 66 65 65 65
76 77 77 77 77 77 76 75 74 74 73 74 75 74 74 75 77 76 77 77 75 74 76 76 75 74 73 73 72 71 71 71 71 70 68 68 68 70 72 73 73 72 72 70 69 71 71 71 70 67 67 65 65 67 66 66 65 65 64 63 63 62
77 77 77 77 77 76 76 74 72 73 74 73 73 73 73 74 74 76 75 75 76 75 75 76 74 73 72 72 71 71 71 70 70 69 69 69 72 73 73 73 73 71 71 69 66 69 69 68 68 65 62 62 62 64 65 64 64 64 63 63 63 62
77 77 77 77 77 74 73 75 75 74 75 74 76 76 76 75 74 74 74 75 75 75 75 75 74 73 71 71 69 69 70 70 71 71 71 71 71 71 71 71 72 70 69 70 68 69 67 67 64 66 66 62 59 58 60 61 62 62 63 62 62 62
76 77 77 77 75 74 74 75 76 76 74 75 73 75 74 74 73 73 72 75 75 75 75 75 74 73 72 71 69 69 71 72 73 73 72 71 71 71 70 70 70 71 70 68 67 65 67 65 64 63 61 63 61 60 54 57 58 60 63 62 62 61
76 76 77 75 73 74 74 74 74 72 71 71 73 72 70 70 72 72 72 72 73 75 75 74 74 74 73 72 71 70 73 72 71 71 72 70 69 69 70 70 71 69 69 67 65 64 64 65 64 65 63 63 60 59 59 57 58 58 62 61 61 62
77 77 77 75 74 74 73 72 70 68 66 67 67 67 68 68 69 70 70 72 73 73 73 73 74 74 75 73 73 73 73 72 70 71 71 69 70 70 69 69 69 69 68 69 67 64 62 65 65 64 64 62 62 59 58 59 59 53 61 61 61 63
76 76 77 75 75 74 73 72 71 70 69 69 68 68 71 71 70 70 70 69 69 71 72 72 73 74 74 74 73 72 72 71 70 69 70 69 67 67 68 68 68 67 66 66 67 64 62 62 64 64 65 64 64 64 64 60 57 55 52 58 60 60
76 76 76 75 74 74 73 72 72 71 71 70 69 68 68 69 69 69 69 68 69 69 71 72 72 73 73 72 71 70 70 70 70 70 69 67 66 66 66 67 66 66 65 64 64 63 62 63 61 61 64 63 63 64 64 63 63 61 58 53 55 60
75 74 74 75 74 75 74 73 72 71 69 70 70 69 70 69 69 69 68 68 68 69 69 70 71 70 70 70 70 70 70 69 68 68 68 66 65 65 65 64 64 63 63 62 63 63 61 60 61 60 62 62 63 62 62 62 63 63 59 57 55 55
73 73 74 74 75 74 73 72 71 70 69 69 70 69 70 68 67 68 67 66 66 67 67 67 68 69 69 70 69 69 68 67 66 66 66 65 64 64 63 64 64 63 63 62 62 62 61 60 61 61 61 60 59 59 59 59 59 59 60 59 56 57
73 73 73 74 74 73 73 72 72 70 69 69 68 68 67 66 66 65 65 65 65 65 66 66 66 67 68 69 68 68 67 67 67 66 66 66 64 64 63 63 63 63 63 62 61 61 61 61 60 60 60 59 58 58 56 56 56 58 57 56 56 58
72 73 73 74 73 72 73 73 73 71 70 70 69 68 67 66 66 65 65 64 65 65 64 65 65 65 66 67 67 66 66 66 65 65 65 65 64 64 64 64 62 62 62 62 62 61 60 59 60 59 59 59 59 59 58 57 58 58 57 56 57 57
71 72 73 74 73 72 72 72 72 72 71 71 70 69 68 67 67 66 65 64 64 63 63 63 64 64 65 66 66 65 65 64 64 65 65 65 64 64 63 62 62 62 61 61 60 60 59 59 59 58 58 59 60 59 58 59 59 58 58 58 57 53
71 72 73 73 73 72 72 73 73 72 71 71 70 69 68 68 68 67 66 65 64 63 63 63 64 64 66 67 67 66 66 65 65 65 65 64 64 64 63 63 62 61 61 60 60 60 60 60 59 60 59 58 58 58 58 59 58 58 57 56 54 53
71 72 73 73 73 73 72 73 73 72 71 71 70 70 69 69 68 66 65 64 63 63 63 64 65 65 68 67 66 66 65 64 64 63 64 63 64 63 63 62 62 61 60 60 60 60 59 59 59 59 59 58 58 58 57 58 57 58 59 57 56 55
72 72 73 73 73 73 72 73 73 72 71 71 70 70 68 67 66 65 64 64 63 63 63 64 65 66 67 66 65 64 64 64 63 63 63 63 63 62 62 60 60 60 60 63 60 60 59 59 58 58 58 59 58 57 58 58 59 57 57 59 58 57
73 73 73 73 73 72 72 72 72 72 71 70 69 68 66 65 65 65 64 64 63 63 65 66 66 66 65 65 64 63 63 63 63 63 63 63 63 62 62 61 60 60 59 61 60 59 59 58 58 58 58 58 57 57 57 57 58 59 59 58 59 57

ECMWFFLT2_sfc_temp_135.txt.gz
Temp
74 74 74 74 73 74 75 76 76 76 76 76 76 76 76 76 76 77 76 76 75 72 70 70 72 70 76 72 75 75 75 75 75 75 75 75 75 75 75 75 75 75 75 75 75 75 75 75 75 75 75 75 76 72 70 72 75 74 74 72 72 73
74 74 74 74 74 74 75 75 74 75 75 75 76 76 75 75 77 73 76 74 71 72 70 69 70 75 70 72 73 75 75 75 75 75 75 75 75 75 75 75 75 75 75 75 75 71 71 73 75 75 75 75 72 70 71 73 74 73 73 72 72 74
74 74 74 74 74 74 74 73 73 74 74 75 76 75 73 75 72 71 71 71 71 71 70 70 70 73 71 74 72 75 75 74 74 74 74 74 75 74 74 74 74 75 74 74 72 69 70 70 70 75 76 74 70 70 73 73 73 72 72 72 72 75
75 75 74 74 74 73 73 73 72 73 72 73 74 74 72 72 72 71 71 70 69 71 72 70 75 77 77 72 72 74 75 74 74 74 74 73 74 74 75 75 74 75 73 72 70 69 71 71 71 72 71 70 70 73 75 73 72 71 72 74 74 75
76 76 75 74 73 73 73 73 73 73 72 72 72 72 72 72 71 71 71 71 71 72 72 71 71 71 69 69 68 68 68 68 68 67 73 67 66 70 70 70 70 71 69 70 70 70 71 72 73 74 72 71 72 74 74 72 72 71 71 71 72 74
76 76 75 74 73 74 74 73 73 73 72 72 72 72 72 72 72 72 72 72 73 71 71 70 70 69 70 68 68 68 68 68 67 68 70 68 67 67 68 69 70 71 70 70 71 71 73 73 74 75 73 73 74 74 74 72 71 71 70 70 72 73
76 76 75 76 75 74 74 74 73 73 73 72 73 72 72 73 73 72 72 73 72 70 70 70 70 69 69 69 67 67 67 67 68 67 69 68 68 69 70 69 70 70 72 72 74 76 76 76 75 76 74 76 76 75 73 71 71 70 69 69 72 73
76 76 75 76 75 74 74 74 74 75 74 74 73 72 72 73 73 73 72 73 72 71 71 70 70 70 71 69 68 68 68 69 69 69 71 72 71 71 70 71 72 73 73 72 71 72 73 73 71 73 75 74 74 73 72 72 71 70 69 68 69 72
75 75 76 75 75 75 75 74 74 74 73 76 74 74 73 73 74 72 73 73 72 71 72 71 69 69 69 69 69 69 69 69 69 68 70 68 68 69 68 68 69 70 70 69 68 68 68 72 69 72 74 73 73 73 72 71 71 70 68 67 68 70
75 75 76 75 74 75 75 73 74 74 73 75 74 74 73 73 72 72 71 73 73 72 71 69 67 67 68 67 68 68 68 68 67 68 69 69 68 68 68 68 68 69 68 68 69 70 70 73 74 73 74 74 73 73 72 71 70 69 68 67 67 69
75 75 75 74 74 75 74 74 74 74 74 74 74 74 73 73 73 72 73 73 74 72 70 69 68 67 67 68 67 68 69 68 67 67 69 69 69 68 68 68 68 67 67 67 68 69 69 67 73 77 76 75 73 73 72 71 70 69 68 67 66 67
75 75 74 74 76 74 74 74 74 74 74 75 75 73 74 74 73 72 74 73 73 71 70 69 68 68 68 68 68 68 68 68 67 67 68 68 68 69 68 68 69 69 68 68 68 69 69 68 72 75 76 74 73 72 71 71 71 70 68 67 66 66
75 73 74 74 75 74 74 75 75 74 74 76 74 74 74 75 73 73 74 73 72 71 69 68 67 68 68 67 67 67 67 68 68 68 68 68 69 69 68 67 68 70 69 69 68 68 71 68 73 73 74 74 73 72 71 71 70 70 69 68 66 66
74 73 72 74 73 74 74 74 75 75 75 74 74 74 74 73 74 74 72 71 70 70 69 68 68 67 67 67 67 67 67 67 68 68 67 67 67 67 67 67 67 67 69 68 68 70 69 72 73 73 72 73 72 71 71 71 69 68 68 68 67 66
73 72 73 72 74 74 74 74 74 74 74 74 75 73 73 74 73 72 70 69 69 70 69 69 69 68 68 67 67 66 67 67 68 67 67 66 67 67 66 66 66 67 67 69 71 72 73 72 72 71 70 70 70 70 69 68 68 67 68 67 67 67
72 72 72 72 73 73 74 74 74 75 74 74 73 73 73 74 73 71 69 69 69 70 69 69 69 68 68 68 68 67 67 67 67 67 67 66 67 66 66 64 66 67 67 70 72 71 72 71 70 70 70 69 68 68 67 66 66 66 65 65 65 64
71 72 71 72 73 73 73 74 73 74 75 73 73 73 73 73 72 71 70 69 69 70 69 69 69 69 68 68 67 67 67 68 68 67 66 65 65 67 66 65 65 67 68 69 71 72 70 70 69 68 68 67 67 66 65 64 64 64 65 64 63 63
72 72 71 73 73 73 74 74 73 74 74 73 74 73 72 73 72 71 70 68 69 69 69 69 69 69 68 69 68 68 68 69 68 67 66 66 65 66 66 66 66 67 68 69 69 69 69 69 68 67 66 65 65 65 64 63 64 65 63 63 62 61
72 72 72 72 73 73 72 73 72 73 72 72 72 72 72 72 71 71 69 69 70 69 69 69 69 69 68 68 67 67 67 68 68 67 67 66 65 65 65 66 67 68 70 70 69 68 68 68 67 66 65 64 64 63 63 63 63 62 61 61 62 62
71 72 72 72 73 72 71 71 70 70 70 70 71 71 71 71 71 70 70 70 69 69 70 69 69 69 69 68 67 67 67 67 67 67 66 65 64 64 64 66 67 68 69 69 69 68 68 68 66 64 63 63 62 62 62 62 61 61 60 59 59 59
70 72 72 72 72 71 69 69 69 69 68 69 69 70 70 71 71 71 71 71 71 70 70 70 70 69 68 70 68 67 67 67 67 67 65 64 65 66 67 68 68 68 68 66 65 66 65 66 64 61 61 60 60 61 62 61 60 60 59 58 57 57
70 72 72 72 72 71 69 69 68 68 68 68 68 69 69 69 70 71 71 70 70 71 71 70 70 69 69 68 67 67 67 67 66 66 66 65 66 68 68 68 68 66 66 64 62 63 63 66 62 60 57 56 56 58 60 59 60 59 58 58 56 56
70 72 72 73 71 70 69 70 70 68 69 68 69 70 69 70 71 70 70 70 69 70 70 69 69 69 68 68 67 67 67 66 66 67 65 64 65 65 65 65 66 65 63 64 62 63 61 62 61 61 61 58 53 53 56 56 58 58 58 56 56 57
71 72 72 73 70 70 71 70 70 70 69 69 68 69 69 69 69 69 68 70 70 70 69 69 69 69 68 66 66 67 67 66 66 66 65 65 64 64 64 65 66 66 65 62 59 59 62 61 61 62 55 56 55 54 50 52 53 56 56 57 56 57
71 72 72 71 70 71 71 69 68 69 69 68 68 68 67 67 68 68 68 68 68 69 70 69 69 68 68 66 66 66 66 66 66 66 66 65 65 64 64 65 65 64 63 61 58 57 60 60 61 62 59 59 56 55 55 52 53 54 57 56 58 56
71 71 71 69 70 71 70 68 66 66 65 65 65 65 65 65 67 67 66 67 68 69 69 68 68 68 68 67 66 66 66 66 65 66 66 66 65 64 64 64 64 62 61 61 60 57 56 60 60 61 60 61 61 56 55 54 53 49 56 54 55 58
71 71 70 69 70 70 69 68 67 67 67 66 65 65 66 67 66 65 66 66 66 67 68 68 67 67 67 67 67 67 66 66 65 65 66 65 64 63 63 63 63 62 61 62 61 56 57 58 58 60 60 60 60 59 60 56 50 50 49 53 55 55
71 70 70 70 70 70 69 68 66 66 66 66 66 65 66 65 66 66 65 65 65 67 68 68 67 66 66 66 66 65 65 64 64 64 64 63 62 62 62 63 62 61 60 60 60 58 55 56 54 58 58 58 59 60 58 55 55 52 50 49 51 55
71 70 70 69 70 70 70 68 67 67 65 66 66 65 65 65 65 65 64 65 66 66 67 67 67 66 64 64 64 63 64 64 63 64 64 62 62 62 61 60 59 59 60 59 60 59 57 55 55 54 53 55 55 55 55 55 56 54 50 49 50 50
70 70 70 69 70 69 69 68 67 67 66 65 65 64 65 65 65 65 64 64 64 64 65 64 64 63 63 64 63 63 63 63 62 63 62 61 61 60 59 59 59 60 60 59 58 58 57 54 55 55 54 53 53 52 53 54 53 52 54 51 49 50
69 69 70 69 70 69 69 68 68 67 66 65 65 65 65 65 65 65 64 63 63 63 63 61 62 62 62 63 63 63 62 62 62 63 62 61 60 60 58 59 60 60 59 58 57 57 57 55 55 55 54 53 51 52 52 51 50 52 50 49 49 51
68 69 69 70 69 69 69 68 68 68 66 66 65 65 65 64 64 64 64 63 63 63 61 61 60 60 61 62 62 61 62 62 63 62 62 62 61 60 60 59 58 58 57 56 57 56 55 54 54 54 53 52 52 53 53 52 53 52 51 50 50 49
68 69 69 70 69 69 68 68 68 67 66 66 65 65 65 64 65 64 64 63 62 60 59 59 59 60 60 61 61 61 62 62 62 62 61 61 60 60 59 58 57 57 57 56 55 55 54 53 54 53 53 53 53 53 52 52 53 52 51 51 49 46
67 68 69 69 69 68 68 68 68 67 66 66 65 64 64 64 64 64 64 63 62 60 59 59 59 60 61 61 61 62 62 62 62 62 61 60 59 59 58 58 57 56 56 55 55 55 54 54 54 53 53 53 53 53 52 53 52 52 52 51 49 47
67 68 68 68 68 68 68 68 68 68 67 66 65 65 64 64 64 64 63 63 61 60 59 59 60 60 61 61 61 61 61 60 60 60 60 59 59 58 59 58 58 56 56 55 55 55 54 54 55 54 53 52 53 52 51 52 51 53 53 52 51 49
67 68 69 68 68 68 68 68 68 68 67 66 66 65 64 64 64 65 64 62 61 60 60 59 60 61 61 61 60 60 60 59 59 59 59 59 58 58 58 57 56 57 56 58 55 54 53 54 53 53 53 52 53 51 52 52 53 51 51 53 52 50
68 68 68 68 68 68 68 67 67 67 67 66 65 64 64 64 64 64 62 61 60 60 60 60 61 61 60 60 60 59 58 58 58 58 57 58 58 57 57 56 55 55 55 55 55 54 53 53 53 52 52 52 51 51 51 52 54 54 53 52 52 50

ECMWFFLT2_sfc_temp_138.txt.gz
Temp
73 73 73 73 73 73 75 76 76 76 76 76 76 76 75 76 76 76 76 76 75 71 69 70 72 70 75 71 74 75 75 75 75 75 75 74 74 74 74 74 74 74 74 74 74 74 74 73 73 74 74 75 74 68 69 70 71 70 70 70 71 72
73 74 74 74 74 74 74 75 73 74 74 75 76 76 75 74 76 72 76 74 69 71 69 67 68 74 69 71 72 74 75 74 74 74 74 74 74 74 74 74 74 74 74 74 74 70 69 70 72 73 74 75 68 67 68 70 70 70 70 70 72 73
72 73 73 73 74 74 73 72 72 73 74 75 75 75 73 74 71 71 70 69 70 68 68 68 69 71 70 73 71 75 74 74 74 74 74 74 74 74 74 74 74 73 73 73 69 66 67 67 67 73 72 68 67 68 70 70 69 70 70 71 71 75
71 72 72 73 73 73 73 72 72 74 73 72 73 73 72 71 70 69 70 69 68 69 69 67 73 75 75 71 71 74 75 74 74 74 74 73 74 73 74 73 73 73 70 68 65 66 67 67 68 68 67 68 67 69 70 69 69 70 71 73 72 74
71 71 71 71 72 73 73 73 73 74 73 73 71 71 71 70 69 68 68 68 68 69 68 67 68 69 68 67 67 67 69 68 67 66 73 65 65 66 66 64 65 67 65 66 67 67 67 68 69 69 69 67 69 70 70 69 70 69 69 70 72 73
71 71 71 71 72 73 73 72 72 73 73 72 71 70 70 69 68 68 68 68 69 68 67 66 67 66 67 66 66 66 66 65 64 64 67 64 64 64 63 65 66 67 66 67 67 67 67 69 69 70 69 68 70 70 69 69 69 69 70 71 71 73
71 71 71 72 71 72 72 73 72 72 72 71 70 69 69 68 69 68 67 69 68 67 67 66 66 66 66 66 66 65 65 64 63 63 65 65 65 65 66 66 67 68 67 67 69 70 70 70 69 70 71 72 71 70 68 68 69 69 68 69 71 73
72 72 71 71 71 72 72 72 72 72 71 71 70 70 69 69 70 69 68 69 70 68 67 67 67 66 66 65 65 64 64 64 64 64 66 67 66 66 66 67 68 68 69 69 69 68 68 69 67 68 70 71 70 69 68 68 68 68 67 67 69 72
72 72 72 72 71 71 71 71 71 71 70 72 70 70 70 70 70 69 69 70 69 66 67 67 66 66 65 65 64 65 64 64 66 66 66 66 67 65 66 66 66 67 66 67 66 67 68 68 67 67 68 68 68 68 68 68 67 67 66 66 67 70
73 72 72 72 71 71 71 71 71 71 70 72 71 71 71 70 70 70 69 70 70 68 67 67 66 65 65 66 65 66 66 65 65 65 66 66 66 66 66 65 66 66 66 66 67 69 68 68 67 67 67 68 68 69 68 67 66 66 66 66 66 69
73 73 73 72 71 71 72 71 71 72 71 72 72 71 71 71 70 70 70 69 69 69 68 67 67 66 66 66 66 66 66 66 65 65 66 66 66 66 66 66 66 66 66 65 66 67 67 66 66 67 68 68 67 68 67 67 66 66 65 64 64 66
74 73 73 72 72 72 71 72 72 72 71 72 72 71 71 71 71 70 70 69 68 69 69 67 67 66 66 66 66 66 66 66 65 66 66 66 67 67 67 67 67 66 66 66 66 66 67 66 66 66 67 67 66 67 67 67 66 65 65 64 63 63
73 73 72 72 72 72 72 73 72 72 72 73 72 71 71 71 70 70 70 69 68 69 69 67 66 67 68 66 66 66 65 66 66 66 67 66 67 67 66 66 66 67 66 66 66 66 69 66 66 66 67 66 66 68 68 67 66 65 65 64 63 62
72 72 72 73 73 72 72 72 73 73 73 73 71 71 72 71 70 69 69 69 68 69 68 67 67 66 67 66 66 66 66 67 67 66 66 66 66 66 65 65 65 66 69 66 66 67 66 66 68 69 67 66 66 67 67 67 65 65 64 64 63 62
72 72 73 72 72 72 72 72 72 73 72 72 72 72 71 70 69 68 69 68 68 68 67 67 67 67 66 66 66 66 66 66 66 66 65 65 66 65 65 65 64 64 65 65 66 68 68 67 68 68 67 67 67 66 65 65 65 64 63 62 63 62
71 71 71 72 72 72 72 72 72 74 72 72 72 71 70 70 69 68 68 67 68 68 67 67 67 67 66 66 67 67 66 66 66 66 65 65 65 64 64 64 64 64 65 67 68 68 68 67 67 65 65 65 65 65 63 63 63 62 62 62 61 61
70 70 70 71 71 72 72 72 72 72 72 71 71 71 70 69 69 68 67 67 67 69 67 67 67 67 67 67 67 66 66 66 66 65 65 64 64 64 64 64 63 64 65 67 69 68 67 66 65 64 64 63 63 63 62 62 61 60 61 60 59 59
70 71 70 70 71 71 72 72 71 72 72 71 71 70 70 69 68 68 67 67 68 68 68 67 67 67 66 67 66 66 66 66 65 65 64 64 64 63 64 63 64 65 67 68 67 66 65 65 64 63 62 62 61 61 60 60 61 61 59 59 58 57
70 70 70 70 71 71 71 71 71 71 71 71 70 70 70 69 68 68 67 67 68 68 68 67 67 67 66 67 66 66 66 65 65 65 64 64 63 63 64 64 65 65 67 67 66 66 65 63 62 62 61 60 60 60 60 60 60 59 58 58 60 58
69 70 69 70 70 70 70 69 69 69 69 69 69 69 69 69 68 67 68 68 67 67 67 67 67 67 67 66 65 65 65 65 65 64 64 63 62 62 63 64 65 66 66 67 67 66 66 64 62 60 60 59 59 59 59 59 58 58 58 57 57 57
69 70 70 69 69 69 69 68 69 69 68 67 68 68 68 67 67 68 68 68 68 67 67 68 68 67 66 68 66 65 65 64 65 65 63 63 63 63 63 64 65 66 65 64 63 64 64 64 61 57 58 57 57 58 59 58 57 57 56 55 55 55
68 69 70 70 69 69 69 69 69 68 68 67 67 67 66 67 67 68 68 68 68 67 67 68 68 67 67 66 66 65 65 65 64 64 64 63 64 66 64 65 65 62 62 62 60 63 64 64 58 57 55 54 55 56 58 57 56 56 54 55 55 55
69 69 69 70 69 68 67 69 69 67 69 67 67 69 68 68 69 68 68 68 68 68 68 67 67 67 67 66 65 65 65 64 64 65 64 63 62 62 63 64 64 63 60 61 61 61 61 58 57 57 58 56 52 52 55 54 56 55 55 54 54 54
69 69 69 70 69 68 69 69 70 69 68 68 66 68 68 68 67 67 67 68 68 68 67 67 67 67 67 66 65 65 65 64 64 63 63 62 62 62 62 64 64 64 63 61 56 59 60 59 61 61 55 53 52 52 49 52 52 55 53 53 54 53
69 69 69 69 69 69 69 68 68 67 67 67 67 67 66 65 66 67 67 66 67 67 67 67 66 66 66 65 64 64 63 63 63 63 63 62 61 61 61 62 63 62 61 59 56 56 60 59 62 61 59 55 53 52 51 50 50 53 52 55 55 53
69 69 69 68 69 69 68 67 66 66 65 65 65 65 64 64 65 65 65 66 66 67 67 66 65 66 66 65 64 63 63 63 62 62 63 61 61 61 61 61 61 62 59 59 60 56 57 60 60 59 59 58 58 54 52 51 50 48 54 52 52 54
69 69 68 68 69 70 68 68 68 67 67 66 65 66 66 66 65 65 65 65 65 65 66 66 65 65 64 64 64 63 63 62 62 62 63 61 60 60 61 62 61 60 60 59 59 56 58 58 58 58 57 57 57 55 58 55 49 47 47 51 53 51
69 69 68 69 69 70 68 68 67 67 67 67 67 66 65 64 65 65 64 64 64 64 64 64 64 63 64 64 63 62 62 61 61 61 62 60 59 60 61 61 60 59 59 58 58 59 56 55 57 56 56 56 56 57 56 52 54 52 48 48 48 52
69 68 68 69 69 69 69 68 67 67 66 66 67 66 65 64 64 64 63 63 64 64 63 63 63 63 62 63 63 61 61 61 60 60 62 60 60 61 61 60 58 58 57 56 56 56 55 52 55 55 54 53 54 53 53 53 54 51 47 45 46 47
67 68 68 68 69 69 68 67 66 66 66 65 66 65 65 64 64 64 64 64 64 63 62 61 61 61 61 61 61 61 61 60 59 60 61 60 60 60 59 59 58 57 56 55 54 55 54 51 52 50 51 53 53 51 52 52 50 49 49 47 48 48
68 68 68 68 69 68 68 67 67 66 66 65 66 65 64 64 64 64 64 63 63 62 61 60 60 60 60 61 60 61 60 59 59 60 60 61 60 59 58 58 57 56 55 55 54 54 53 52 52 52 50 49 50 52 50 47 50 48 47 45 47 47
67 67 67 68 68 68 67 67 67 67 66 66 65 65 65 64 65 64 64 62 62 62 61 60 59 59 60 60 60 59 60 59 59 58 59 60 59 58 57 57 56 56 55 54 55 54 53 52 51 51 50 49 49 50 50 50 48 49 51 49 51 48
67 67 67 68 68 67 67 67 67 66 66 65 65 66 66 65 65 64 64 62 62 61 60 59 58 58 58 59 59 58 58 58 59 60 60 60 58 58 57 56 56 55 55 54 53 53 52 51 51 51 50 49 49 50 49 48 50 49 48 48 51 47
67 67 67 67 67 67 67 67 67 66 66 65 65 66 66 66 65 65 64 63 62 61 60 59 58 58 58 59 59 59 59 59 60 60 60 59 58 58 57 56 55 54 53 52 53 52 52 51 50 50 50 50 50 49 48 49 48 49 48 48 46 49
66 66 67 67 67 67 67 67 67 66 66 65 65 66 66 66 65 64 64 62 60 59 58 58 58 58 59 58 58 59 60 59 59 60 59 59 58 57 56 56 54 53 53 52 52 53 51 51 51 50 50 50 50 49 48 48 48 50 50 48 47 45
67 66 67 67 67 67 67 66 66 65 65 65 65 65 64 64 65 65 64 62 60 59 58 58 58 58 58 59 58 59 59 59 59 58 58 58 57 56 55 54 53 53 53 54 52 52 51 51 50 50 49 49 50 49 50 49 50 49 48 49 48 45
67 67 67 67 67 67 66 66 65 65 65 64 64 63 63 64 64 64 63 61 60 59 59 58 58 58 58 58 58 57 57 57 58 58 57 57 56 55 54 54 53 53 52 53 53 51 50 51 50 49 49 49 49 49 49 49 49 50 50 49 48 47

ECMWFFLT2_sfc_temp_141.txt.gz
Temp
72 73 73 73 73 73 75 76 76 76 76 76 75 76 75 75 76 76 75 75 75 72 69 70 71 68 75 71 74 74 74 74 74 74 74 74 74 74 74 74 74 73 73 73 73 72 72 72 73 73 74 74 73 67 68 68 69 70 70 71 71 71
73 73 73 73 73 73 74 75 73 74 74 75 75 76 75 74 76 72 76 74 69 71 68 66 66 73 68 71 71 74 74 74 74 74 74 74 74 73 73 73 73 73 73 73 73 67 66 70 72 73 74 74 66 66 68 69 69 69 70 70 71 73
73 73 73 73 73 73 73 72 72 73 74 75 75 75 72 74 71 70 70 69 69 68 67 66 67 70 68 73 70 74 74 74 74 74 74 74 73 73 73 73 73 73 72 72 66 63 63 63 64 73 72 67 66 67 69 69 69 69 70 71 71 72
73 73 73 73 73 73 72 72 72 72 72 72 73 72 72 71 70 69 68 68 67 67 67 65 72 75 74 70 69 74 74 74 74 74 74 71 72 72 73 71 72 72 68 66 62 63 64 63 65 64 64 65 67 68 69 69 69 69 69 72 72 72
73 73 72 72 73 72 73 72 72 72 71 71 70 70 70 70 69 68 67 68 67 67 66 65 65 66 67 65 64 64 66 67 66 65 71 63 64 65 64 62 62 65 62 63 64 63 64 65 65 65 65 67 69 69 69 69 69 69 69 70 71 73
72 72 72 72 72 73 73 72 72 73 72 71 70 70 69 69 68 67 67 67 67 65 64 64 64 64 64 63 64 64 64 63 63 63 66 65 65 63 62 61 63 63 64 64 65 65 65 67 67 66 67 68 69 70 70 70 71 70 70 70 71 73
71 71 72 73 73 73 72 72 73 73 72 71 70 69 69 68 68 67 67 68 66 65 64 63 63 63 63 63 64 63 63 62 63 63 64 64 63 63 63 63 62 63 64 65 66 67 67 66 67 69 68 69 69 69 69 69 69 69 68 68 71 73
71 71 71 72 72 72 72 73 73 73 73 72 70 69 68 68 68 67 67 67 68 65 65 64 63 62 63 62 62 62 62 62 63 63 63 63 63 62 63 63 63 64 66 67 68 67 66 67 67 69 68 68 69 69 68 68 68 67 66 65 68 71
71 71 71 72 71 72 72 72 72 72 71 73 70 69 69 68 67 67 66 66 67 65 64 65 64 64 62 63 62 63 62 62 63 64 63 63 64 63 63 63 64 65 64 65 64 65 67 66 67 68 68 68 68 68 67 66 66 65 65 64 65 70
70 71 71 71 71 71 71 71 71 72 71 72 70 69 68 68 67 66 65 66 67 66 65 65 64 64 63 63 62 61 63 63 63 62 63 64 64 64 63 63 64 65 65 64 65 67 66 67 66 67 67 67 67 66 65 65 65 64 64 64 64 68
70 71 71 71 70 71 71 70 71 71 71 70 70 69 69 68 67 67 67 67 67 67 66 65 65 64 63 63 63 63 63 62 62 63 63 64 64 64 64 64 65 64 64 64 65 66 66 66 66 67 67 66 66 66 65 65 65 64 63 62 62 64
70 70 71 71 70 70 70 70 70 71 70 70 70 69 69 68 68 67 68 67 67 66 67 65 65 64 64 64 63 63 63 63 63 63 64 64 65 64 64 65 65 65 65 65 65 65 65 65 65 66 67 66 66 65 65 65 64 63 63 62 61 61
71 70 70 70 70 70 69 70 70 70 70 70 70 69 69 68 68 68 68 67 67 67 67 66 65 65 67 64 64 64 63 64 63 64 65 64 65 65 65 65 66 66 65 65 65 65 66 65 65 65 66 66 65 65 65 64 63 63 62 61 60 59
70 70 70 70 70 69 69 70 70 70 70 70 69 69 69 68 68 68 68 67 67 67 67 66 66 65 65 65 65 65 64 64 65 67 66 65 65 64 64 64 64 64 67 65 64 64 64 64 65 65 65 65 65 64 64 64 63 62 61 60 60 59
71 70 71 70 70 69 70 70 70 70 70 70 69 69 69 69 67 67 67 66 67 68 67 66 66 66 65 65 65 64 64 66 67 67 65 64 64 64 63 64 64 64 64 64 65 67 66 65 65 65 65 65 65 64 63 62 62 62 61 59 59 59
70 70 70 70 70 70 70 70 70 71 70 70 69 69 68 68 68 67 67 67 67 68 66 66 66 66 65 65 65 65 65 66 67 65 63 63 63 63 62 63 64 64 64 64 65 65 65 64 64 64 65 64 64 63 61 61 61 60 59 59 59 58
70 70 70 70 70 69 70 70 70 71 70 69 69 69 68 68 67 67 66 66 67 68 66 66 66 66 66 65 65 66 66 66 66 64 63 63 63 63 62 63 63 65 66 64 65 64 63 63 63 63 64 63 62 61 59 59 59 58 58 57 57 57
70 70 70 70 69 69 70 70 70 70 70 69 69 69 68 68 67 67 66 66 66 67 66 66 66 66 65 66 66 66 66 66 65 63 63 63 63 62 62 63 63 64 66 65 64 63 62 62 61 61 60 60 59 59 59 59 59 60 57 57 56 55
70 70 70 70 69 69 69 69 69 69 68 68 68 68 68 67 66 66 66 67 67 67 67 66 66 66 65 67 66 66 66 65 64 63 63 63 62 63 63 62 64 64 65 65 64 63 62 61 60 59 58 57 57 57 58 58 58 56 56 56 58 57
70 70 69 69 69 68 68 68 67 67 67 67 67 68 67 67 66 66 67 67 66 66 66 66 66 66 66 66 66 66 65 65 63 63 63 62 61 62 63 63 64 65 64 64 64 63 63 61 59 58 58 56 56 57 57 57 56 56 56 55 55 55
69 69 69 68 68 68 67 66 67 67 66 66 67 67 67 66 66 66 67 67 66 66 66 67 67 66 66 67 66 66 65 65 64 63 63 62 62 62 64 64 65 65 63 62 61 63 62 62 60 56 56 56 55 56 57 56 55 54 54 54 54 53
69 68 69 69 69 68 68 68 67 66 66 66 66 66 65 65 66 67 67 66 66 66 66 67 67 66 67 66 66 65 64 64 64 62 62 62 62 65 64 64 64 62 62 62 60 61 61 63 58 55 53 52 53 54 56 55 54 54 53 53 52 52
69 68 69 69 69 68 67 68 68 66 67 65 66 68 67 67 67 66 66 66 66 66 66 66 67 67 66 66 65 64 64 63 63 64 63 62 62 63 63 64 64 63 60 61 62 62 61 57 56 55 56 54 49 50 55 53 54 53 53 52 52 52
68 69 68 69 69 68 68 68 68 68 67 67 65 66 66 66 65 65 65 66 66 66 67 67 67 67 66 65 64 64 64 63 63 63 62 61 61 62 62 62 62 64 63 60 61 61 60 57 59 59 55 52 51 50 47 50 51 54 51 52 50 50
68 69 68 69 68 68 68 67 67 66 67 66 66 66 65 64 65 66 66 65 65 66 66 66 66 66 66 65 64 63 63 63 62 61 62 61 61 61 62 62 63 62 63 62 60 58 59 59 61 60 58 53 51 51 50 50 49 53 50 54 53 50
68 68 68 68 68 69 68 67 65 65 64 65 64 64 64 64 64 65 65 65 65 66 66 66 65 65 65 65 63 63 62 62 61 61 61 60 60 59 60 61 62 63 61 63 63 59 58 59 62 58 58 57 57 54 50 52 49 48 53 51 49 51
69 68 68 68 68 69 67 67 67 67 66 66 65 65 64 65 66 65 65 64 65 66 66 65 64 64 64 64 62 62 62 61 61 60 62 60 59 59 60 61 62 61 62 61 62 60 58 57 58 57 55 55 56 55 57 54 47 46 47 48 47 49
69 68 68 68 68 69 68 67 67 67 66 66 66 65 64 63 64 65 65 65 65 65 65 64 63 63 63 63 62 61 61 61 60 60 61 59 58 58 59 60 62 61 61 61 62 61 58 57 59 57 55 54 55 56 54 51 54 54 49 49 47 51
68 68 67 68 68 69 69 68 67 67 65 66 66 65 64 63 64 65 64 64 64 64 64 63 62 62 62 62 62 60 60 60 59 60 60 58 58 58 58 59 59 59 59 58 59 60 59 57 56 54 52 51 53 52 51 52 51 49 47 44 45 46
67 67 67 68 68 68 68 68 67 66 66 65 65 64 64 63 63 64 63 63 63 63 62 61 60 60 60 60 60 60 59 59 59 59 60 57 57 57 57 58 59 59 58 57 55 57 58 54 54 52 53 52 50 50 51 51 49 48 49 46 48 47
67 67 67 67 68 67 68 68 67 66 66 65 65 64 64 63 63 63 63 62 62 61 61 60 60 59 59 59 59 60 58 58 59 61 59 57 57 57 57 57 57 57 56 56 54 53 53 52 51 51 50 53 54 56 53 50 51 47 47 44 46 45
66 66 67 68 67 67 67 67 67 67 66 66 66 65 65 64 64 64 63 62 61 60 59 58 58 57 58 58 59 58 58 58 58 57 57 57 57 57 58 57 57 56 54 53 53 53 52 51 50 49 48 47 47 48 47 50 52 51 51 49 52 47
65 66 67 67 67 67 67 67 67 67 66 66 66 66 66 65 65 64 63 62 61 59 58 57 56 57 57 57 58 57 57 57 57 57 57 57 57 57 57 57 56 54 53 52 52 52 52 50 51 50 48 47 47 49 47 46 49 49 49 50 51 47
66 66 67 67 67 66 66 67 67 67 66 66 66 67 67 66 65 64 63 62 61 60 58 59 57 57 57 57 57 58 58 56 56 57 58 58 57 57 57 56 55 53 51 51 51 51 50 49 48 48 48 48 48 48 46 47 47 49 49 50 48 50
65 66 66 67 67 66 66 66 66 67 66 66 67 67 66 66 65 63 63 63 62 60 59 58 58 58 58 57 56 56 57 56 56 56 57 58 58 57 56 56 54 52 51 51 51 51 49 50 49 48 47 49 49 47 47 46 46 47 50 53 51 50
66 66 66 66 67 66 66 66 66 66 66 66 67 67 65 65 65 64 63 63 61 60 59 58 59 59 59 58 56 56 56 56 56 56 57 57 56 56 55 54 53 53 52 52 51 50 49 49 48 48 48 47 49 46 46 46 47 45 45 47 50 50
65 66 66 66 66 66 66 65 65 66 65 65 66 65 65 65 64 64 63 62 61 60 59 60 59 59 58 56 56 56 56 55 56 57 57 57 56 55 55 55 53 52 50 50 51 49 48 49 48 48 48 48 47 46 46 46 47 47 47 46 46 46

ECMWFFLT2_sfc_temp_144.txt.gz
Temp
72 72 73 73 72 73 75 76 76 76 76 76 75 76 75 75 75 75 75 75 75 72 70 70 71 70 75 72 74 74 74 74 74 75 74 74 74 74 74 73 73 73 73 73 72 72 72 73 74 74 73 72 72 70 71 72 73 73 73 72 72 72
72 72 73 73 73 73 74 75 73 74 74 74 75 75 74 73 75 72 75 74 70 71 68 67 67 74 70 72 72 74 74 74 74 74 74 74 74 73 73 73 73 73 73 73 71 66 67 70 73 74 72 71 70 70 71 71 72 72 71 71 72 73
73 73 73 73 73 72 72 72 72 72 73 74 74 74 73 74 71 71 71 70 70 69 67 67 68 71 69 72 71 74 74 74 74 74 74 73 73 73 73 73 72 72 70 68 64 64 64 63 66 73 71 70 70 70 71 71 71 71 71 72 72 73
73 73 73 73 73 73 72 71 72 72 71 71 72 72 71 72 70 70 69 68 68 68 67 66 73 74 74 69 69 73 74 74 74 74 74 69 69 70 70 69 70 70 65 64 64 65 65 66 66 67 69 70 70 70 71 71 71 71 72 73 73 73
73 73 72 72 72 72 73 73 73 72 71 71 71 71 71 70 69 69 68 68 67 68 66 65 66 67 66 65 64 64 66 65 65 66 69 65 64 65 65 63 63 64 62 64 66 65 66 67 67 69 69 70 70 71 71 71 71 72 72 72 73 73
73 72 72 72 72 73 73 72 72 72 72 72 71 71 70 69 68 68 67 68 68 66 65 65 65 65 64 64 64 64 64 64 63 65 68 67 67 65 65 63 63 65 65 65 66 66 68 68 68 69 70 70 71 71 71 71 71 70 70 71 73 73
72 72 72 72 73 72 72 72 72 72 71 71 71 70 69 68 68 67 67 68 67 65 64 64 63 63 63 64 63 63 63 64 64 65 66 67 66 66 65 64 63 64 63 65 68 68 68 69 69 70 70 71 71 70 70 70 69 69 69 70 72 73
71 71 71 72 72 72 72 72 72 72 72 72 71 70 70 69 68 67 67 67 68 65 64 63 63 63 62 63 63 62 63 65 66 65 66 65 65 64 63 64 64 64 67 68 68 68 68 69 69 70 70 70 70 69 68 68 68 67 67 68 71 72
71 71 71 72 71 72 72 72 72 71 70 72 71 71 70 68 67 67 67 67 68 65 64 64 62 62 62 62 62 63 64 64 64 65 64 64 64 63 63 64 64 65 65 66 66 67 68 68 68 69 69 69 68 67 66 66 67 67 67 67 69 71
71 71 71 71 71 72 72 71 71 72 71 72 71 71 70 68 67 66 66 66 68 66 65 64 63 62 63 62 62 63 64 63 64 63 63 63 64 64 64 64 65 66 66 66 67 68 68 68 68 68 68 67 66 65 65 65 66 66 66 66 67 70
71 71 71 71 71 71 72 71 72 72 72 72 71 70 69 68 67 66 66 65 66 67 65 64 64 63 63 63 62 62 62 62 62 63 64 64 64 65 64 65 65 65 65 66 66 67 67 67 67 68 67 66 65 64 65 65 65 65 65 64 65 67
71 71 71 71 71 71 71 71 71 72 71 72 71 71 70 69 68 67 66 65 65 66 67 64 65 63 63 63 63 62 62 62 62 62 64 64 65 65 65 65 66 66 66 66 66 67 68 67 66 66 66 65 65 65 65 65 65 64 63 63 63 63
71 71 70 70 71 71 71 71 71 71 71 72 71 71 70 69 68 67 66 66 65 66 67 65 64 65 66 64 64 63 62 63 63 64 65 65 66 65 66 66 66 66 66 66 66 66 68 67 66 65 65 64 64 65 65 64 63 63 62 62 61 61
70 70 70 71 71 71 71 71 71 71 71 71 71 70 70 69 68 67 67 66 66 66 67 65 65 65 65 64 64 64 64 63 65 66 66 66 65 65 65 65 65 66 67 66 65 66 66 66 66 66 65 64 63 64 64 64 63 62 61 61 61 60
70 70 70 70 70 70 70 70 70 70 70 70 70 70 70 68 67 67 67 66 66 67 67 66 66 65 65 65 65 64 64 65 66 67 66 65 65 65 65 65 65 64 64 65 66 67 67 66 66 65 65 65 64 64 63 62 62 61 61 60 60 60
69 69 70 70 70 70 70 70 70 70 70 70 70 69 69 68 67 67 67 66 66 67 67 66 66 66 65 65 65 65 65 66 67 66 65 65 65 65 64 64 65 65 64 65 66 66 67 65 64 63 64 64 63 63 61 61 60 60 60 60 60 59
68 69 70 70 70 70 69 69 69 70 69 69 69 68 68 67 67 67 66 66 66 68 66 66 66 66 66 65 65 65 66 66 66 65 65 64 64 64 64 64 64 66 65 64 65 64 64 64 63 63 62 61 62 61 60 60 59 59 60 59 58 58
68 69 70 70 69 69 68 68 68 69 69 68 68 68 68 67 67 67 66 66 66 67 66 66 66 66 66 66 66 66 66 66 65 64 64 64 64 63 64 65 64 65 65 64 63 61 61 62 61 60 60 60 60 60 60 60 61 60 59 58 57 57
68 69 69 70 69 68 68 68 68 68 68 68 68 68 67 67 67 66 66 66 67 67 67 66 66 66 66 67 66 66 66 66 65 64 64 63 63 64 64 65 64 63 64 64 62 62 62 60 59 59 58 58 59 59 60 60 59 58 58 58 59 58
68 68 69 69 68 67 67 67 67 67 67 67 67 67 67 67 66 66 67 67 66 66 66 66 66 66 66 67 66 66 66 65 64 64 63 63 62 63 64 63 63 63 62 63 62 62 62 60 60 59 58 58 58 59 59 59 58 58 58 57 57 57
67 68 68 68 67 67 66 66 67 67 67 67 66 67 66 66 66 66 67 66 66 66 66 67 67 67 66 67 66 66 65 65 64 64 64 63 63 64 65 65 64 63 61 60 60 61 59 61 59 57 57 57 57 59 59 58 57 56 56 56 57 57
67 68 68 68 67 67 67 68 67 67 68 66 66 66 65 65 66 66 66 66 66 66 66 67 67 67 67 67 66 65 65 64 64 63 64 63 64 66 65 64 63 61 63 61 58 60 60 63 58 56 55 54 56 57 59 58 58 57 56 56 55 55
67 67 68 68 67 67 67 67 67 65 67 65 66 68 67 66 67 66 65 66 66 66 66 67 67 67 67 67 66 65 65 64 64 65 64 63 64 64 64 64 63 62 60 62 59 60 61 60 58 57 57 55 52 52 57 57 58 57 56 56 55 56
67 67 68 68 68 67 67 66 67 67 67 67 65 66 66 65 65 65 65 65 66 66 67 67 67 67 67 66 66 65 64 64 64 65 64 63 63 63 63 63 63 63 62 59 60 60 62 61 61 59 54 54 52 52 49 52 53 57 54 55 54 55
67 67 68 68 68 67 67 66 66 66 66 65 65 65 64 64 65 65 65 65 65 66 67 67 67 67 66 66 65 65 64 64 64 64 64 64 64 64 64 64 64 63 62 61 59 60 60 61 61 61 59 54 52 52 52 51 52 56 54 58 57 53
68 68 68 68 68 67 67 66 65 65 64 65 64 64 64 64 64 64 65 66 66 67 67 67 67 67 66 65 64 64 64 64 63 63 63 63 64 63 63 63 64 64 63 63 62 61 58 60 62 59 61 60 60 58 51 53 52 50 57 55 53 55
68 68 68 68 68 68 66 66 66 66 66 65 65 65 65 65 66 66 66 66 66 66 67 66 66 67 66 65 64 64 64 64 63 62 63 62 62 63 63 64 64 63 64 64 63 61 59 58 60 59 58 58 58 58 58 55 51 51 51 55 53 53
68 68 68 68 67 68 67 66 66 66 66 65 65 64 64 64 65 66 65 65 66 66 66 66 66 66 65 65 63 63 63 62 62 62 63 62 62 61 62 63 64 64 63 64 63 62 60 60 59 59 58 57 57 58 58 55 57 56 53 51 52 55
68 67 67 67 68 68 68 67 67 66 65 65 65 64 64 65 65 66 65 65 65 65 65 65 65 64 64 63 64 62 62 62 61 62 63 60 60 61 62 62 62 61 61 60 62 62 61 60 60 58 56 54 56 57 56 56 56 54 52 50 51 52
67 67 67 67 68 68 68 67 66 66 65 64 64 64 64 64 65 65 64 64 64 64 64 63 64 63 62 62 62 62 62 62 61 61 61 60 60 60 60 61 62 61 59 60 61 61 61 61 61 59 59 56 54 54 56 57 55 53 54 54 53 52
67 67 67 67 67 67 67 67 67 66 66 65 64 64 63 64 64 64 63 63 63 63 63 63 63 61 61 61 61 62 61 60 61 62 61 60 60 60 60 60 60 60 59 59 58 59 58 58 58 57 56 57 58 58 57 56 55 54 54 51 52 50
66 66 66 67 67 67 67 67 67 67 66 65 65 65 64 63 64 64 63 63 63 62 62 61 61 59 59 60 60 59 60 60 60 59 59 59 59 59 59 59 58 58 57 57 56 57 56 55 55 55 55 56 57 58 57 58 57 57 56 54 55 52
65 66 66 66 66 67 67 67 67 67 66 66 65 65 65 64 65 65 64 62 62 61 61 60 60 60 58 59 59 59 59 59 58 59 58 58 58 58 58 58 58 56 56 56 55 55 55 55 55 55 55 52 53 53 55 53 56 55 54 55 55 51
65 66 66 66 66 66 66 67 67 67 66 66 65 65 65 65 65 65 64 63 63 62 61 61 60 60 59 60 60 60 59 58 58 58 58 57 57 58 58 57 56 56 55 54 54 54 54 53 52 52 51 52 51 52 51 51 54 54 53 54 53 53
65 65 66 66 66 66 66 66 66 67 66 66 66 65 65 65 65 64 64 63 63 62 61 61 60 59 59 59 59 59 58 58 57 57 58 57 57 57 57 57 56 54 53 53 53 53 52 52 51 51 50 51 50 50 49 50 52 54 56 57 55 53
66 65 66 66 66 66 66 66 66 66 66 66 66 66 65 65 65 64 63 63 62 61 60 59 59 59 59 60 59 59 59 57 57 57 57 57 57 56 56 55 54 53 53 53 52 52 51 51 50 50 50 50 50 49 49 49 51 52 55 56 56 55
66 65 66 66 66 67 66 66 66 66 66 66 65 65 65 64 64 63 63 62 61 60 60 60 59 60 59 59 59 59 58 57 56 57 57 57 57 56 56 55 54 53 52 53 52 51 51 51 50 50 50 50 50 49 49 49 49 50 51 53 55 55